Regional Weather Roundup
Issued by NWS

Home | Current Version | Previous Version | Text Only | Print | Product List | Glossary On
Versions: 1 2 3 4 5 6 7 8 9 10 11 12 13 14 15 16 17 18 19 20 21 22 23 24 25 26 27 28 29 30 31 32 33 34 35 36 37 38 39 40 41 42 43 44 45 46 47 48 49 50
000
ASUS43 KFSD 010510
RWRSD

WEATHER ROUNDUP FOR SOUTH DAKOTA
NATIONAL WEATHER SERVICE SIOUX FALLS SD
1200 AM CDT WED OCT 01 2014

NOTE: "FAIR" INDICATES FEW OR NO CLOUDS BELOW 12,000 FEET WITH NO
SIGNIFICANT WEATHER AND/OR OBSTRUCTIONS TO VISIBILITY.


SDZ001>005-009-010-012>017-010600-
NORTHWEST AND NORTH CENTRAL SOUTH DAKOTA

CITY           SKY/WX    TMP DP  RH WIND       PRES   REMARKS
BUFFALO          N/A     53  50  89 W14       29.57R
FAITH            N/A     54  49  83 SW15      29.63R
MOBRIDGE       MOCLDY    59  53  80 SW9       29.55R
$$

SDZ012>016-024>037-041>051-057-063-072>074-010600-
SOUTHWEST AND SOUTH CENTRAL SOUTH DAKOTA

CITY           SKY/WX    TMP DP  RH WIND       PRES   REMARKS
RAPID CTY ARPT MOCLDY    53  44  71 W5        29.70S
PIERRE         PTCLDY    56  49  77 SW8       29.65R
CUSTER         MOCLDY    46  40  79 W6        29.78S
ELLSWORTH AFB  MOCLDY    51  45  79 NW6       29.70S
PHILIP         MOCLDY    54  47  77 W5        29.67R
PINE RIDGE     CLOUDY    53  49  86 SW5       29.74R
WINNER         FAIR      63  46  54 S7        29.69R
$$

SDZ004>011-016>023-039-040-010600-
NORTHEAST SOUTH DAKOTA

CITY           SKY/WX    TMP DP  RH WIND       PRES   REMARKS
ABERDEEN       PTCLDY    62  52  69 S14       29.60R
WATERTOWN      MOCLDY    62  59  90 S21G30    29.69R
SISSETON         N/A     63  60  90 S17G23    29.63S
$$

SDZ017-020-022-023-036>040-048>070-010600-
SOUTHEAST SOUTH DAKOTA

CITY           SKY/WX    TMP DP  RH WIND       PRES   REMARKS
SIOUX FALLS    CLOUDY    62  59  90 S12       29.76S
HURON          CLEAR     62  59  90 S9        29.67S
CHAMBERLAIN    MOCLDY    55  48  77 CALM      29.67S
MITCHELL       MOCLDY    63  61  93 SE10      29.70F
YANKTON        CLOUDY    63  61  94 SE9       29.74S
$$

ABBREVIATIONS USED IN REMARKS
   TC - TEMPERATURE IN CELSIUS
  WCI - WIND CHILL INDEX
   HX - HEAT INDEX
  VSB - VISIBILITY



USA.gov is the U.S. government's official web portal to all federal, state and local government web resources and services.